Location: Lango�lan
(48.1202°N, 3.2340°W)
Time: 15:19:43
(UTC+00:00)

ATLAS 3B R/B - Pass Details

Date: 23 October 2019
Orbit: 1029 x 1166 km, 63.8° (Epoch: 12 November)

Event Time Altitude Azimuth Distance (km) Brightness Sun altitude
Exits shadow 04:53:36 30° 259° (W) 1,773 3.3 -19.0°
Maximum altitude 04:54:26 31° 246° (WSW) 1,746 3.3 -18.9°
Drops below altitude 10° 05:00:18 10° 187° (S) 2,904 4.9 -17.9°
Sets 05:03:16 0° 177° (S) 3,878 5.6 -17.4°
